Meteo pe oră la Aylesbury

Astăzi, 31 Octombrie, Sâmbătă

Timp Temperatura Precipitaţii Vânt Presiune Umiditate
00:00 +14°C° 0 mm 6 m/s 755 mmHg 94%
01:00 +14°C° 0 mm 6 m/s 754 mmHg 93%
02:00 +14°C° 0 mm 7 m/s 753 mmHg 91%
03:00 +14°C° 0 mm 7 m/s 753 mmHg 90%
04:00 +14°C° 0 mm 7 m/s 752 mmHg 88%
05:00 +12°C° 0 mm 7 m/s 751 mmHg 86%
06:00 +12°C° 0 mm 7 m/s 751 mmHg 83%
07:00 +12°C° 0 mm 8 m/s 750 mmHg 83%
08:00 +12°C° 0 mm 9 m/s 749 mmHg 83%
09:00 +12°C° 0 mm 10 m/s 748 mmHg 83%
10:00 +13°C° 1.2 mm 10 m/s 747 mmHg 85%
11:00 +13°C° 1.2 mm 11 m/s 746 mmHg 88%
12:00 +13°C° 0 mm 9 m/s 745 mmHg 89%
13:00 +12°C° 0.5 mm 9 m/s 746 mmHg 85%
14:00 +12°C° 0.5 mm 9 m/s 746 mmHg 80%
15:00 +11°C° 0.5 mm 9 m/s 747 mmHg 75%
16:00 +10°C° 0 mm 8 m/s 747 mmHg 77%
17:00 +9°C° 0 mm 6 m/s 748 mmHg 79%
18:00 +8°C° 0 mm 5 m/s 749 mmHg 82%
19:00 +8°C° 0 mm 6 m/s 749 mmHg 81%
20:00 +8°C° 0 mm 6 m/s 749 mmHg 80%
21:00 +8°C° 0 mm 6 m/s 750 mmHg 79%
22:00 +8°C° 0 mm 6 m/s 749 mmHg 80%
23:00 +8°C° 0 mm 6 m/s 749 mmHg 81%

Mâine, 1 Noiembrie, Duminică

Timp Temperatura Precipitaţii Vânt Presiune Umiditate
00:00 +8°C° 0 mm 5 m/s 749 mmHg 82%
01:00 +8°C° 0 mm 6 m/s 748 mmHg 83%
02:00 +8°C° 0 mm 6 m/s 747 mmHg 83%
03:00 +9°C° 0 mm 7 m/s 747 mmHg 84%
04:00 +9°C° 0 mm 7 m/s 746 mmHg 84%
05:00 +10°C° 0 mm 8 m/s 744 mmHg 84%
06:00 +10°C° 0 mm 9 m/s 743 mmHg 84%
07:00 +12°C° 0.1 mm 9 m/s 743 mmHg 85%
08:00 +13°C° 0.1 mm 9 m/s 743 mmHg 85%
09:00 +16°C° 0.1 mm 8 m/s 742 mmHg 86%
10:00 +15°C° 0 mm 9 m/s 743 mmHg 82%
11:00 +15°C° 0 mm 9 m/s 743 mmHg 78%
12:00 +13°C° 0 mm 10 m/s 744 mmHg 74%
13:00 +13°C° 0 mm 9 m/s 744 mmHg 75%
14:00 +13°C° 0 mm 8 m/s 744 mmHg 75%
15:00 +12°C° 0 mm 7 m/s 745 mmHg 76%
16:00 +12°C° 0.2 mm 7 m/s 744 mmHg 80%
17:00 +12°C° 0.2 mm 8 m/s 744 mmHg 84%
18:00 +13°C° 0.2 mm 8 m/s 743 mmHg 88%
19:00 +15°C° 0 mm 9 m/s 743 mmHg 87%
20:00 +16°C° 0 mm 10 m/s 742 mmHg 87%
21:00 +17°C° 0 mm 10 m/s 742 mmHg 87%
22:00 +17°C° 0 mm 10 m/s 742 mmHg 86%
23:00 +17°C° 0 mm 11 m/s 742 mmHg 85%

Poimâine, 2 Noiembrie, Luni

Timp Temperatura Precipitaţii Vânt Presiune Umiditate
00:00 +17°C° 0 mm 11 m/s 742 mmHg 84%
01:00 +17°C° 0 mm 11 m/s 741 mmHg 84%
02:00 +17°C° 0 mm 12 m/s 741 mmHg 83%
03:00 +15°C° 0 mm 12 m/s 740 mmHg 82%
04:00 +15°C° 0.1 mm 12 m/s 740 mmHg 83%
05:00 +16°C° 0.1 mm 11 m/s 740 mmHg 83%
06:00 +16°C° 0.1 mm 11 m/s 739 mmHg 84%
07:00 +15°C° 0.1 mm 12 m/s 739 mmHg 79%
08:00 +15°C° 0.1 mm 13 m/s 739 mmHg 75%
09:00 +14°C° 0.1 mm 14 m/s 739 mmHg 70%
10:00 +13°C° 0 mm 13 m/s 740 mmHg 69%
11:00 +12°C° 0 mm 13 m/s 741 mmHg 69%
12:00 +10°C° 0 mm 12 m/s 743 mmHg 68%
13:00 +11°C° 0 mm 11 m/s 743 mmHg 67%
14:00 +9°C° 0 mm 11 m/s 744 mmHg 66%
15:00 +9°C° 0 mm 10 m/s 745 mmHg 65%
16:00 +8°C° 0 mm 10 m/s 746 mmHg 65%
17:00 +7°C° 0 mm 9 m/s 747 mmHg 66%
18:00 +7°C° 0 mm 9 m/s 748 mmHg 66%
19:00 +6°C° 0 mm 9 m/s 748 mmHg 66%
20:00 +6°C° 0 mm 9 m/s 749 mmHg 66%
21:00 +6°C° 0 mm 10 m/s 749 mmHg 65%
22:00 +6°C° 0 mm 10 m/s 749 mmHg 66%
23:00 +5°C° 0 mm 10 m/s 750 mmHg 67%

3 Noiembrie, Marţi

Timp Temperatura Precipitaţii Vânt Presiune Umiditate
00:00 +5°C° 0 mm 10 m/s 750 mmHg 69%
01:00 +5°C° 0 mm 10 m/s 751 mmHg 70%
02:00 +5°C° 0 mm 9 m/s 752 mmHg 72%
03:00 +5°C° 0 mm 9 m/s 752 mmHg 74%
04:00 +5°C° 0 mm 9 m/s 753 mmHg 75%
05:00 +5°C° 0 mm 8 m/s 753 mmHg 76%
06:00 +5°C° 0 mm 7 m/s 754 mmHg 78%
07:00 +5°C° 0.2 mm 8 m/s 754 mmHg 79%
08:00 +5°C° 0.2 mm 8 m/s 755 mmHg 81%
09:00 +5°C° 0.2 mm 8 m/s 756 mmHg 82%
10:00 +5°C° 0.4 mm 7 m/s 756 mmHg 79%
11:00 +6°C° 0.4 mm 7 m/s 757 mmHg 76%
12:00 +8°C° 0.4 mm 7 m/s 757 mmHg 73%
13:00 +8°C° 0.1 mm 7 m/s 757 mmHg 75%
14:00 +8°C° 0.1 mm 7 m/s 757 mmHg 77%
15:00 +8°C° 0.1 mm 7 m/s 757 mmHg 79%
16:00 +7°C° 0.1 mm 6 m/s 758 mmHg 81%
17:00 +6°C° 0.1 mm 5 m/s 758 mmHg 82%
18:00 +5°C° 0.1 mm 4 m/s 759 mmHg 84%
19:00 +4°C° 0 mm 4 m/s 759 mmHg 85%
20:00 +4°C° 0 mm 4 m/s 759 mmHg 86%
21:00 +4°C° 0 mm 4 m/s 760 mmHg 86%
22:00 +3°C° 0 mm 4 m/s 760 mmHg 88%
23:00 +3°C° 0 mm 3 m/s 760 mmHg 89%

4 Noiembrie, Miercuri

Timp Temperatura Precipitaţii Vânt Presiune Umiditate
00:00 +3°C° 0 mm 3 m/s 760 mmHg 90%
01:00 +3°C° 0 mm 3 m/s 760 mmHg 91%
02:00 +3°C° 0 mm 3 m/s 760 mmHg 91%
03:00 +3°C° 0 mm 2 m/s 760 mmHg 92%
04:00 +3°C° 0 mm 2 m/s 760 mmHg 92%
05:00 +3°C° 0 mm 2 m/s 760 mmHg 92%
06:00 +3°C° 0 mm 2 m/s 761 mmHg 92%
07:00 +4°C° 0 mm 2 m/s 761 mmHg 90%
08:00 +4°C° 0 mm 2 m/s 761 mmHg 88%
09:00 +6°C° 0 mm 1 m/s 762 mmHg 87%
10:00 +6°C° 0 mm 2 m/s 762 mmHg 83%
11:00 +7°C° 0 mm 2 m/s 763 mmHg 79%
12:00 +8°C° 0 mm 3 m/s 763 mmHg 75%
13:00 +8°C° 0 mm 2 m/s 763 mmHg 76%
14:00 +8°C° 0 mm 2 m/s 764 mmHg 76%
15:00 +8°C° 0 mm 2 m/s 764 mmHg 77%
16:00 +7°C° 0 mm 2 m/s 764 mmHg 81%
17:00 +7°C° 0 mm 1 m/s 765 mmHg 85%
18:00 +6°C° 0 mm 1 m/s 765 mmHg 88%
19:00 +6°C° 0 mm 1 m/s 766 mmHg 88%
20:00 +5°C° 0 mm 1 m/s 766 mmHg 88%
21:00 +5°C° 0 mm 1 m/s 767 mmHg 89%
22:00 +5°C° 0 mm 1 m/s 767 mmHg 88%
23:00 +5°C° 0 mm 1 m/s 767 mmHg 88%

5 Noiembrie, Joi

Timp Temperatura Precipitaţii Vânt Presiune Umiditate
00:00 +5°C° 0 mm 1 m/s 768 mmHg 88%
01:00 +4°C° 0 mm 1 m/s 768 mmHg 88%
02:00 +4°C° 0 mm 1 m/s 768 mmHg 87%
03:00 +3°C° 0 mm 0 m/s 768 mmHg 87%
04:00 +3°C° 0 mm 0 m/s 768 mmHg 87%
05:00 +3°C° 0 mm 0 m/s 769 mmHg 87%
06:00 +2°C° 0 mm 0 m/s 769 mmHg 87%
07:00 +3°C° 0 mm 0 m/s 769 mmHg 84%
08:00 +4°C° 0 mm 0 m/s 770 mmHg 82%
09:00 +5°C° 0 mm 0 m/s 770 mmHg 79%
10:00 +7°C° 0 mm 1 m/s 770 mmHg 75%
11:00 +8°C° 0 mm 1 m/s 770 mmHg 70%
12:00 +9°C° 0 mm 1 m/s 770 mmHg 66%
13:00 +9°C° 0 mm 1 m/s 770 mmHg 67%
14:00 +9°C° 0 mm 1 m/s 769 mmHg 68%
15:00 +9°C° 0 mm 1 m/s 769 mmHg 70%
16:00 +8°C° 0 mm 1 m/s 769 mmHg 73%
17:00 +6°C° 0 mm 2 m/s 769 mmHg 77%
18:00 +5°C° 0 mm 2 m/s 769 mmHg 80%
19:00 +4°C° 0 mm 2 m/s 769 mmHg 82%
20:00 +4°C° 0 mm 2 m/s 769 mmHg 83%
21:00 +4°C° 0 mm 2 m/s 769 mmHg 85%
22:00 +4°C° 0 mm 2 m/s 769 mmHg 87%
23:00 +4°C° 0 mm 2 m/s 769 mmHg 89%
Arată mai mult

Formular de consimțământ

Meteoprog și furnizorii noștri de servicii pot stoca și accesa date personale, precum cookies, identificatori de dispozitiv sau alte tehnologii similare pe dispozitivul dumneavoastră și procesa astfel de date pentru a personaliza conținutul și reclamele, dar și pentru a oferi caracteristici de social media și pentru a analiza traficul.

  • Stocarea și/sau accesarea informațiilor pe dispozitivul dumneavoastră

    Cookies, identificatori de dispozitiv sau alte informații pot fi stocate sau accesate pe dispozitiv în scopurile indicate mai sus.

  • Reclame și conținut personalizat, evaluarea reclamelor și a conținutului, informații despre audiențe și dezvoltarea produselor

    Reclamele și conținutul pot fi personalizate pe baza unui profil. Pot fi adăugate date suplimentare pentru a personaliza mai bine reclamele și conținutul. Performanța reclamelor și conținutului poate fi măsurată. Pot fi obținute informații despre utilizatorii care au văzut reclamele și conținutul. Aceste date pot fi utilizate pentru a dezvolta sau îmbunătăți experiența utilizatorilor, sistemele și software-ul.

Dând clic pe ‘Sunt de acord’, permiteți utilizarea cookie-urilor menționate, a identificatorilor de dispozitiv, balizelor web sau altor tehnologii similare. Setările pot fi modificate din browser-ul dispozitivului dumneavoastră.

În anumite scopuri, interesele legitime pot prima asupra consimțământului. Puteți citi mai multe informații în acest sens în Politica privind Confidențialitatea Datelor și Cookie.